When you browse on this site, cookies collect data to enhance your experience and personalize the content and advertising you see.
Visit our Privacy Policy to learn more. By continuing to use the site, you agree to this use of cookies and data.
  • In Schweiz
  • Länderverzeichnis
  • Für 7 Tage
  • Wassertemperatur
  • Wetterkarte
  • Widgets
  • user-avatar
    Anmelden

    Stündliche Wetter Jewłach

    Heute, 21 August, Mittwoch

    Zeit Temperatur Niederschläge Wind Luftdruck Luftfeuchtigkeit
    00:00 +26°C° 0 mm 3 m/S 761 mmHg 43%
    01:00 +25°C° 0 mm 2 m/S 761 mmHg 45%
    02:00 +24°C° 0 mm 2 m/S 761 mmHg 47%
    03:00 +24°C° 0 mm 2 m/S 761 mmHg 49%
    04:00 +24°C° 0 mm 1 m/S 761 mmHg 49%
    05:00 +24°C° 0 mm 1 m/S 761 mmHg 49%
    06:00 +22°C° 0 mm 0 m/S 762 mmHg 50%
    07:00 +27°C° 0 mm 1 m/S 761 mmHg 42%
    08:00 +30°C° 0 mm 1 m/S 761 mmHg 35%
    09:00 +33°C° 0 mm 1 m/S 761 mmHg 28%
    10:00 +36°C° 0 mm 2 m/S 761 mmHg 24%
    11:00 +38°C° 0 mm 3 m/S 760 mmHg 20%
    12:00 +41°C° 0 mm 4 m/S 760 mmHg 16%
    13:00 +41°C° 0 mm 4 m/S 759 mmHg 14%
    14:00 +42°C° 0 mm 4 m/S 759 mmHg 13%
    15:00 +43°C° 0 mm 4 m/S 758 mmHg 12%
    16:00 +42°C° 0 mm 4 m/S 758 mmHg 12%
    17:00 +41°C° 0 mm 4 m/S 758 mmHg 13%
    18:00 +39°C° 0 mm 3 m/S 758 mmHg 13%
    19:00 +36°C° 0 mm 4 m/S 758 mmHg 17%
    20:00 +34°C° 0 mm 4 m/S 758 mmHg 21%
    21:00 +30°C° 0 mm 5 m/S 759 mmHg 25%
    22:00 +29°C° 0 mm 4 m/S 759 mmHg 29%
    23:00 +27°C° 0 mm 3 m/S 759 mmHg 34%

    Morgen, 22 August, Donnerstag

    Zeit Temperatur Niederschläge Wind Luftdruck Luftfeuchtigkeit
    00:00 +26°C° 0 mm 3 m/S 758 mmHg 39%
    01:00 +26°C° 0 mm 2 m/S 758 mmHg 41%
    02:00 +25°C° 0 mm 2 m/S 759 mmHg 42%
    03:00 +25°C° 0 mm 2 m/S 759 mmHg 44%
    04:00 +25°C° 0 mm 1 m/S 759 mmHg 44%
    05:00 +25°C° 0 mm 1 m/S 759 mmHg 44%
    06:00 +25°C° 0 mm 1 m/S 759 mmHg 44%
    07:00 +27°C° 0 mm 1 m/S 758 mmHg 38%
    08:00 +30°C° 0 mm 2 m/S 758 mmHg 32%
    09:00 +34°C° 0 mm 2 m/S 758 mmHg 27%
    10:00 +36°C° 0 mm 3 m/S 758 mmHg 22%
    11:00 +38°C° 0 mm 4 m/S 757 mmHg 18%
    12:00 +41°C° 0 mm 4 m/S 757 mmHg 13%
    13:00 +42°C° 0 mm 5 m/S 756 mmHg 12%
    14:00 +43°C° 0 mm 5 m/S 756 mmHg 11%
    15:00 +45°C° 0 mm 6 m/S 755 mmHg 10%
    16:00 +44°C° 0 mm 6 m/S 756 mmHg 11%
    17:00 +42°C° 0 mm 6 m/S 756 mmHg 12%
    18:00 +41°C° 0 mm 6 m/S 756 mmHg 13%
    19:00 +38°C° 0 mm 6 m/S 756 mmHg 17%
    20:00 +34°C° 0 mm 5 m/S 757 mmHg 20%
    21:00 +30°C° 0 mm 5 m/S 757 mmHg 24%
    22:00 +29°C° 0 mm 4 m/S 757 mmHg 27%
    23:00 +28°C° 0 mm 4 m/S 757 mmHg 29%

    übermorgen, 23 August, Freitag

    Zeit Temperatur Niederschläge Wind Luftdruck Luftfeuchtigkeit
    00:00 +27°C° 0 mm 3 m/S 758 mmHg 32%
    01:00 +26°C° 0 mm 3 m/S 758 mmHg 34%
    02:00 +26°C° 0 mm 3 m/S 758 mmHg 37%
    03:00 +25°C° 0 mm 2 m/S 758 mmHg 39%
    04:00 +25°C° 0 mm 2 m/S 758 mmHg 39%
    05:00 +26°C° 0 mm 2 m/S 758 mmHg 39%
    06:00 +26°C° 0 mm 1 m/S 758 mmHg 40%
    07:00 +29°C° 0 mm 2 m/S 758 mmHg 34%
    08:00 +32°C° 0 mm 2 m/S 758 mmHg 29%
    09:00 +36°C° 0 mm 2 m/S 758 mmHg 24%
    10:00 +38°C° 0 mm 4 m/S 758 mmHg 21%
    11:00 +41°C° 0 mm 5 m/S 757 mmHg 18%
    12:00 +44°C° 0 mm 7 m/S 757 mmHg 15%
    13:00 +44°C° 0 mm 7 m/S 756 mmHg 15%
    14:00 +45°C° 0 mm 8 m/S 756 mmHg 14%
    15:00 +45°C° 0 mm 8 m/S 756 mmHg 14%
    16:00 +44°C° 0 mm 8 m/S 756 mmHg 14%
    17:00 +43°C° 0 mm 7 m/S 756 mmHg 15%
    18:00 +41°C° 0 mm 7 m/S 756 mmHg 15%
    19:00 +39°C° 0 mm 6 m/S 756 mmHg 18%
    20:00 +35°C° 0 mm 5 m/S 757 mmHg 21%
    21:00 +32°C° 0 mm 4 m/S 758 mmHg 25%
    22:00 +30°C° 0 mm 4 m/S 758 mmHg 29%
    23:00 +29°C° 0 mm 3 m/S 758 mmHg 33%

    24 August, Samstag

    Zeit Temperatur Niederschläge Wind Luftdruck Luftfeuchtigkeit
    00:00 +27°C° 0 mm 3 m/S 758 mmHg 37%
    01:00 +27°C° 0 mm 3 m/S 758 mmHg 42%
    02:00 +26°C° 0 mm 2 m/S 758 mmHg 47%
    03:00 +25°C° 0 mm 2 m/S 757 mmHg 51%
    04:00 +26°C° 0 mm 2 m/S 758 mmHg 52%
    05:00 +26°C° 0 mm 1 m/S 758 mmHg 53%
    06:00 +26°C° 0 mm 1 m/S 758 mmHg 53%
    07:00 +29°C° 0 mm 1 m/S 758 mmHg 47%
    08:00 +31°C° 0 mm 1 m/S 758 mmHg 40%
    09:00 +35°C° 0 mm 2 m/S 758 mmHg 33%
    10:00 +37°C° 0 mm 3 m/S 757 mmHg 28%
    11:00 +41°C° 0 mm 4 m/S 757 mmHg 23%
    12:00 +43°C° 0 mm 5 m/S 757 mmHg 18%
    13:00 +45°C° 0 mm 6 m/S 756 mmHg 16%
    14:00 +45°C° 0 mm 6 m/S 756 mmHg 15%
    15:00 +46°C° 0 mm 7 m/S 756 mmHg 14%
    16:00 +45°C° 0 mm 8 m/S 756 mmHg 14%
    17:00 +44°C° 0 mm 8 m/S 756 mmHg 14%
    18:00 +41°C° 0 mm 8 m/S 756 mmHg 14%
    19:00 +39°C° 0 mm 7 m/S 757 mmHg 20%
    20:00 +35°C° 0 mm 6 m/S 758 mmHg 26%
    21:00 +32°C° 0 mm 5 m/S 758 mmHg 31%
    22:00 +30°C° 0 mm 4 m/S 759 mmHg 36%
    23:00 +29°C° 0 mm 3 m/S 759 mmHg 40%

    25 August, Sonntag

    Zeit Temperatur Niederschläge Wind Luftdruck Luftfeuchtigkeit
    00:00 +27°C° 0 mm 2 m/S 759 mmHg 44%
    01:00 +27°C° 0 mm 1 m/S 759 mmHg 45%
    02:00 +26°C° 0 mm 1 m/S 759 mmHg 47%
    03:00 +26°C° 0 mm 1 m/S 759 mmHg 48%
    04:00 +26°C° 0 mm 1 m/S 759 mmHg 47%
    05:00 +26°C° 0 mm 1 m/S 759 mmHg 47%
    06:00 +24°C° 0 mm 0 m/S 759 mmHg 46%
    07:00 +27°C° 0 mm 0 m/S 759 mmHg 41%
    08:00 +31°C° 0 mm 1 m/S 759 mmHg 35%
    09:00 +34°C° 0 mm 1 m/S 759 mmHg 30%
    10:00 +37°C° 0 mm 2 m/S 758 mmHg 25%
    11:00 +39°C° 0 mm 3 m/S 758 mmHg 20%
    12:00 +42°C° 0 mm 4 m/S 757 mmHg 15%
    13:00 +43°C° 0 mm 4 m/S 757 mmHg 14%
    14:00 +43°C° 0 mm 5 m/S 757 mmHg 13%
    15:00 +45°C° 0 mm 5 m/S 756 mmHg 12%
    16:00 +44°C° 0 mm 6 m/S 756 mmHg 13%
    17:00 +41°C° 0 mm 6 m/S 756 mmHg 14%
    18:00 +40°C° 0 mm 7 m/S 756 mmHg 15%
    19:00 +36°C° 0 mm 6 m/S 757 mmHg 17%
    20:00 +34°C° 0 mm 5 m/S 757 mmHg 19%
    21:00 +30°C° 0 mm 5 m/S 758 mmHg 22%
    22:00 +28°C° 0.1 mm 4 m/S 758 mmHg 27%
    23:00 +27°C° 0.1 mm 3 m/S 758 mmHg 31%

    26 August, Montag

    Zeit Temperatur Niederschläge Wind Luftdruck Luftfeuchtigkeit
    00:00 +25°C° 0.1 mm 2 m/S 758 mmHg 36%
    01:00 +25°C° 0.3 mm 1 m/S 758 mmHg 41%
    02:00 +24°C° 0.3 mm 1 m/S 758 mmHg 45%
    03:00 +22°C° 0.3 mm 0 m/S 758 mmHg 49%
    04:00 +24°C° 0.2 mm 1 m/S 758 mmHg 51%
    05:00 +24°C° 0.2 mm 1 m/S 758 mmHg 52%
    06:00 +24°C° 0.2 mm 2 m/S 758 mmHg 53%
    07:00 +26°C° 0.1 mm 2 m/S 758 mmHg 46%
    08:00 +28°C° 0.1 mm 2 m/S 758 mmHg 39%
    09:00 +31°C° 0.1 mm 3 m/S 758 mmHg 32%
    10:00 +34°C° 0 mm 2 m/S 758 mmHg 28%
    11:00 +35°C° 0 mm 2 m/S 758 mmHg 23%
    12:00 +36°C° 0 mm 1 m/S 758 mmHg 18%
    13:00 +38°C° 0 mm 2 m/S 757 mmHg 17%
    14:00 +39°C° 0 mm 2 m/S 757 mmHg 17%
    15:00 +39°C° 0 mm 2 m/S 757 mmHg 16%
    16:00 +38°C° 0.1 mm 2 m/S 757 mmHg 18%
    17:00 +37°C° 0.1 mm 2 m/S 757 mmHg 21%
    18:00 +36°C° 0.1 mm 2 m/S 757 mmHg 24%
    19:00 +34°C° 0.1 mm 3 m/S 758 mmHg 27%
    20:00 +31°C° 0.1 mm 3 m/S 759 mmHg 29%
    21:00 +29°C° 0.1 mm 4 m/S 760 mmHg 32%
    22:00 +28°C° 0.1 mm 4 m/S 760 mmHg 35%
    23:00 +27°C° 0.1 mm 3 m/S 760 mmHg 39%
    Mehr zeigen